This demonstration page uses our WeatherBlox Daily Observations layout. Learn more.

Left ArrowRight Arrow

40.92945, -100.16068

Hourly Observations for September 13, 2016

Temp ( °F °C ) Dew Point ( °F °C ) Humidity (%) Winds ( mph kmh ) Pressure ( in mb ) Visibility ( mi km ) Precip ( " mm )
12:15 am 00:15 Cloudy 59 15 49 9.3 69 69 NNE 12 19 30.03 1017 10 16 N/A
12:35 am 00:35 Cloudy 59 15 49 9.3 69 69 NNE 7 11 30.03 1017 10 16 N/A
12:55 am 00:55 Cloudy 59 15 48 9.1 68 68 NNE 13 20 30.03 1017 10 16 N/A
1:15 am 01:15 Cloudy 59 15 48 8.8 67 67 NNE 12 19 30.03 1017 10 16 N/A
1:35 am 01:35 Cloudy 59 15 47 8.6 66 66 NNE 13 20 30.03 1017 10 16 N/A
1:55 am 01:55 Cloudy 58 14.7 47 8.5 67 67 NNE 13 20 30.03 1017 10 16 N/A
2:15 am 02:15 Cloudy 58 14.5 47 8.1 66 66 NNE 17 28 30.03 1017 10 16 N/A
2:35 am 02:35 Cloudy 58 14.4 47 8.1 66 66 NNE 13 20 30.06 1018 10 16 N/A
2:55 am 02:55 Cloudy 57 14.1 47 8.2 68 68 NNE 12 19 30.06 1018 10 16 N/A
3:15 am 03:15 Cloudy 57 14 47 8.2 68 68 NNE 9 15 30.09 1019 10 16 N/A
3:35 am 03:35 Cloudy 56 13.5 47 8.1 70 70 NNE 12 19 30.12 1020 10 16 N/A
3:55 am 03:55 Cloudy 56 13.3 47 8.2 71 71 N 10 17 30.12 1020 10 16 N/A
4:15 am 04:15 Cloudy 56 13.3 46 8 71 71 N 12 19 30.12 1020 10 16 N/A
4:35 am 04:35 Cloudy 56 13.2 46 8 71 71 N 10 17 30.15 1021 10 16 N/A
4:55 am 04:55 Cloudy 55 13 46 7.9 71 71 N 8 13 30.15 1021 10 16 N/A
5:15 am 05:15 Cloudy 55 13 46 7.7 70 70 N 9 15 30.15 1021 10 16 N/A
5:35 am 05:35 Cloudy 55 12.8 46 7.6 71 71 N 10 17 30.15 1021 10 16 N/A
5:55 am 05:55 Cloudy 55 12.6 46 7.5 71 71 N 8 13 30.15 1021 10 16 N/A
6:15 am 06:15 Cloudy 55 12.5 46 7.5 72 72 N 10 17 30.15 1021 10 16 N/A
6:35 am 06:35 Cloudy 54 12.2 45 7.3 72 72 N 18 30 30.09 1019 10 16 N/A
6:55 am 06:55 Cloudy with Nearby Thunderstorms 54 12.1 45 7.2 72 72 NNE 13 20 30.12 1020 10 16 N/A
7:15 am 07:15 Cloudy 54 12 45 7 72 72 N 16 26 30.12 1020 10 16 N/A
7:35 am 07:35 Cloudy 53 11.5 45 7 74 74 N 17 28 30.12 1020 10 16 N/A
7:55 am 07:55 Cloudy 53 11.5 44 6.7 73 73 NNE 16 26 30.15 1021 10 16 N/A
8:15 am 08:15 Cloudy 53 11.6 44 6.7 72 72 NNE 14 22 30.15 1021 10 16 N/A
8:35 am 08:35 Cloudy 53 11.9 45 7 72 72 NNE 13 20 30.15 1021 10 16 N/A
8:55 am 08:55 Cloudy 54 12 45 7 72 72 NE 14 22 30.18 1022 10 16 N/A
9:15 am 09:15 Cloudy 54 12 45 7 72 72 NE 10 17 30.18 1022 10 16 N/A
9:35 am 09:35 Cloudy 53 11.8 45 7 73 73 NE 12 19 30.24 1024 10 16 N/A
9:55 am 09:55 Cloudy 54 12 45 7.1 72 72 NNE 8 13 30.21 1023 10 16 N/A
10:15 am 10:15 Cloudy 54 12.1 44 6.8 70 70 NNE 12 19 30.21 1023 10 16 N/A
10:35 am 10:35 Cloudy 54 12.1 45 7 71 71 NNE 10 17 30.21 1023 10 16 N/A
10:55 am 10:55 Cloudy 54 12.3 45 7.1 71 71 NNE 10 17 30.21 1023 10 16 N/A
11:15 am 11:15 Cloudy 55 13 45 7.2 68 68 NNE 12 19 30.21 1023 10 16 N/A
11:35 am 11:35 Cloudy 56 13.6 45 7.2 66 66 NNE 14 22 30.21 1023 10 16 N/A
11:55 am 11:55 Cloudy 56 13.3 45 7.2 67 67 NE 8 13 30.21 1023 10 16 N/A
12:15 pm 12:15 Cloudy 56 13.5 45 7.1 65 65 NE 12 19 30.21 1023 10 16 N/A
12:35 pm 12:35 Cloudy 56 13.6 45 7 65 65 NE 14 22 30.21 1023 10 16 N/A
12:55 pm 12:55 Cloudy 58 14.5 45 7 61 61 NE 15 24 30.18 1022 10 16 N/A
1:15 pm 13:15 Cloudy 59 14.8 45 7.2 61 61 NE 15 24 30.18 1022 10 16 N/A
1:35 pm 13:35 Cloudy 58 14.7 44 6.5 58 58 NE 13 20 30.18 1022 10 16 N/A
1:55 pm 13:55 Cloudy 59 15.1 44 6.8 58 58 NE 9 15 30.15 1021 10 16 N/A
2:15 pm 14:15 Cloudy 59 15.2 45 7.2 59 59 NE 9 15 30.15 1021 10 16 N/A
2:35 pm 14:35 Cloudy 60 15.3 45 7.1 58 58 NE 12 19 30.15 1021 10 16 N/A
2:55 pm 14:55 Cloudy 60 15.6 46 7.5 59 59 NE 10 17 30.15 1021 10 16 N/A
3:15 pm 15:15 Cloudy 60 15.5 45 7.4 59 59 NNE 10 17 30.15 1021 10 16 N/A
3:35 pm 15:35 Cloudy 60 15.8 46 7.5 58 58 NE 13 20 30.15 1021 10 16 N/A
3:55 pm 15:55 Cloudy 60 15.8 46 7.7 59 59 NE 12 19 30.15 1021 10 16 N/A
4:15 pm 16:15 Cloudy 60 15.5 45 7.2 58 58 NE 10 17 30.15 1021 10 16 N/A
4:35 pm 16:35 Cloudy 60 15.5 44 6.8 56 56 NE 9 15 30.15 1021 10 16 N/A
4:55 pm 16:55 Cloudy 59 15.2 45 7 58 58 NE 9 15 30.15 1021 10 16 N/A
5:15 pm 17:15 Cloudy 59 15.2 45 7.1 59 59 NNE 9 15 30.15 1021 10 16 N/A
5:35 pm 17:35 Cloudy 59 15.2 46 7.6 61 61 NE 10 17 30.15 1021 10 16 N/A
5:55 pm 17:55 Cloudy 60 15.3 45 7.2 59 59 NNE 12 19 30.15 1021 10 16 N/A
6:15 pm 18:15 Cloudy 60 15.5 46 7.9 61 61 NNE 10 17 30.15 1021 10 16 N/A
6:35 pm 18:35 Cloudy 59 15 45 7 59 59 NE 9 15 30.15 1021 10 16 N/A
6:55 pm 18:55 Cloudy 59 15 44 6.8 58 58 NE 10 17 30.15 1021 10 16 N/A
7:15 pm 19:15 Cloudy 58 14.6 45 7 61 61 NE 9 15 30.18 1022 10 16 N/A
7:35 pm 19:35 Cloudy 58 14.5 44 6.5 59 59 NE 12 19 30.18 1022 10 16 N/A
7:55 pm 19:55 Cloudy 58 14.2 45 7.1 63 63 NE 8 13 30.18 1022 10 16 N/A
8:15 pm 20:15 Cloudy 57 14 46 7.5 65 65 NE 6 9 30.21 1023 10 16 N/A
8:35 pm 20:35 Cloudy 57 13.9 46 7.8 67 67 ENE 5 7 30.21 1023 10 16 N/A
8:55 pm 20:55 Cloudy 57 13.8 46 8 68 68 E 6 9 30.21 1023 10 16 N/A
9:15 pm 21:15 Cloudy 57 13.8 46 8 68 68 E 6 9 30.24 1024 10 16 N/A
9:35 pm 21:35 Cloudy 56 13.6 46 8 69 69 E 7 11 30.24 1024 10 16 N/A
9:55 pm 21:55 Cloudy 56 13.5 46 8 70 70 E 7 11 30.24 1024 10 16 N/A
10:15 pm 22:15 Cloudy 56 13.3 47 8.1 71 71 E 6 9 30.24 1024 10 16 N/A
10:35 pm 22:35 Cloudy 56 13.1 47 8.1 72 72 E 5 7 30.24 1024 10 16 N/A
10:55 pm 22:55 Cloudy 55 13 47 8.2 73 73 E 5 7 30.24 1024 10 16 N/A
11:15 pm 23:15 Cloudy 55 13 47 8.3 73 73 ENE 5 7 30.27 1025 10 16 N/A
11:35 pm 23:35 Cloudy 55 13 47 8.1 72 72 E 7 11 30.27 1025 10 16 N/A
11:55 pm 23:55 Cloudy 55 12.8 46 8 73 73 E 8 13 30.27 1025 10 16 N/A

Powered by AerisWeather